National Weather Service United States Department of Commerce

Observations from across/near northern Michigan

Marine Observations

Michigan Hourly Observations

 

Yesterday's high, low and precipitation reports from across northern Michigan

Northern Michigan Temperatures and Precipitation

 

Observation Text Products


000
SXUS83 KAPX 221938
OMRAPX

Marine Observations
National Weather Service Gaylord MI
238 PM EST Fri Jan 22 2021

WIND DATA (KTS) WAVES WATER
SITE DATE/TIME DIR SPEED GUST (FT) TEMP(F) SITE NAME
-------------------------------------------------------------

Lake Superior/St Marys River

GRMM4 221840Z 320 17 26 Grand Marais
WFPM4 221840Z 340 8 20 Whitefish Point
PTIM4 221900Z 290 20 26 Point Iroquois
CYAM 221920Z 320 15 SOO (Canada)
KANJ 221855Z 330 10 20 Sault Ste Marie
SWPM4 221900Z 340 16 19 33 S.W. Pier
LTRM4 221900Z 340 15 22 Little Rapids
RCKM4 221900Z 340 16 23 Rock Cut
WNEM4 221900Z 340 18 23 West Nebish Island

Lake Huron

DTLM4 221900Z 290 5 13 35 DeTour Village
KDRM 221915Z 310 8 16 Drummond Island
KMCD 221915Z 300 15 19 Mackinac Island
MACM4 221900Z 320 15 19 32 Mackinac City
KSLH 221915Z 290 12 Cheboygan Airport
CYGM4 221850Z 330 9 19 Cheboygan Marina
SRLM4 221830Z 300 17 Spectacle Reef Light
KPZQ 221915Z 290 11 23 Rogers City
KAPN 221854Z 300 9 23 Alpena Guard Base
APNM4 221750Z 340 11 15 Alpena Harbor Light
SPTM4 221850Z 320 9 25 Sturgeon Point Light
KOSC 221915Z 320 9 Oscoda
TAWM4 221840Z 320 9 13 Tawas Point
GSLM4 221840Z 280 14 17 Gravelly Shoals
KP58 221855Z 310 13 25 Port Hope

Lake Michigan

KISQ 221915Z 310 13 25 Manistique
NABM4 221840Z 330 12 18 Naubinway
KSJX 221915Z 300 8 20 St James
KPLN 221854Z 330 10 16 Pellston
KMGN 221915Z 310 11 18 Harbor Springs
KCVX 221915Z 290 17 23 Charlevoix
NMIM4 221828Z 273 6 13 North Manitou Island
GTLM4 221840Z 310 21 24 Grand Traverse Light
KTVC 221853Z 310 13 Traverse City
KFKS 221915Z 330 12 18 Frankfort
MEEM4 221840Z 310 15 21 Manistee Harbor
BSBM4 221840Z 320 19 26 Big Sable Point
LDTM4 221900Z 330 7 14 Ludington
KLDM 221915Z 330 6 Ludington Airport


000
ASUS43 KDTX 222001
RWRMI
MICHIGAN HOURLY REGIONAL WEATHER ROUNDUP
NATIONAL WEATHER SERVICE DETROIT/PONTIAC MI
300 PM EST FRI JAN 22 2021

NOTE: "FAIR" INDICATES FEW OR NO CLOUDS BELOW 12,000 FEET WITH NO
SIGNIFICANT WEATHER AND/OR OBSTRUCTION TO VISIBILITY.

MIZ047>049-052>055-059>063-066>070-074>076-081>083-222100-
SOUTHEAST LOWER MICHIGAN

CITY SKY/WX TMP DP RH WIND PRES REMARKS
ADRIAN CLOUDY 25 10 53 NW16G25 30.01R WCI 12
ALMA CLOUDY 22 7 54 NW13 30.02S WCI 10
ANN ARBOR CLOUDY 23 11 60 NW14 29.99R WCI 11
BAD AXE CLOUDY 20 12 69 NW9G18 29.94R WCI 10
CARO CLOUDY 22 10 60 W10G20 29.97R WCI 11
DETROIT CITY CLOUDY 24 10 55 NW9G22 29.99R WCI 14
DETROIT FLURRIES 25 12 58 NW14 29.99R WCI 13
FLINT CLOUDY 22 8 55 NW16 30.00R WCI 8
GROSSE ILE CLOUDY 27 15 60 NW9 29.98R WCI 17
HILLSDALE CLOUDY 23 12 64 NW15G21 29.98R WCI 10
HOWELL CLOUDY 21 10 63 NW10 29.99R WCI 9

CITY SKY/WX TMP DP RH WIND PRES REMARKS
JACKSON CLOUDY 22 8 55 NW8 30.00R WCI 12
LAMBERTVILLE CLOUDY 28 13 54 NW10G17 30.00R WCI 18
LANSING CLOUDY 20 12 71 NW9 30.02R WCI 9
LAPEER CLOUDY 21 7 55 W12G18 29.98R WCI 9
MASON CLOUDY 21 8 58 W13G20 30.01R WCI 9
PONTIAC CLOUDY 21 7 54 W16G25 29.96R WCI 7
PORT HOPE N/A 23 10 57 NW15G24 29.92R WCI 10
PORT HURON CLOUDY 23 9 54 W13 29.97R WCI 11
TRI CITIES CLOUDY 22 7 52 NW14 30.01R WCI 9
MIDLAND CLOUDY 21 6 51 NW13G18 30.00R WCI 9
TROY CLOUDY 23 11 61 NW10G17 30.00R WCI 12
SAGINAW HB CLOUDY 23 9 54 W15G21 30.00R WCI 10
$$
MIZ043>046-050>051-056>058-064>065-071>073-077>080-222100-
SOUTHWEST LOWER MICHIGAN

CITY SKY/WX TMP DP RH WIND PRES REMARKS
BATTLE CREEK CLOUDY 22 11 62 NW14 30.03R WCI 9
BENTON HARBOR CLOUDY 21 10 62 NW9G23 30.10R WCI 11
BIG RAPIDS CLOUDY 17 6 62 NW9G17 30.00S WCI 5
COLDWATER FLURRIES 23 13 65 NW10 30.02R WCI 12
FREMONT LGT SNOW 18 10 71 NW9 30.05R WCI 7
HOLLAND FLURRIES 21 10 62 NW10 30.07R WCI 10
GRAND RAPIDS FLURRIES 21 9 59 NW18G25 30.04R WCI 6
IONIA CLOUDY 21 4 47 NW12 30.02S WCI 9
KALAMAZOO LGT SNOW 22 13 68 NW16 30.04R WCI 8
LUDINGTON CLOUDY 18 7 61 N12G20 30.07S WCI 6
MARSHALL FLURRIES 22 11 62 NW7G16 30.02R WCI 13
MOUNT PLEASANT CLOUDY 20 8 59 NW6 30.00R WCI 13
MUSKEGON CLOUDY 20 8 60 NW15 30.07S WCI 6
SOUTH HAVEN FLURRIES 23 11 61 W9G18 30.08R WCI 13
$$
MIZ016>042-222100-
NORTHERN LOWER MICHIGAN

CITY SKY/WX TMP DP RH WIND PRES REMARKS
ALPENA CLOUDY 19 6 57 NW9G25 29.95R WCI 8
BEAVER ISLAND LGT SNOW 17 10 74 NW9G22 30.02R WCI 6
BELLAIRE LGT SNOW 19 10 67 NW8G16 30.02R WCI 9
CADILLAC CLOUDY 15 6 67 W10 29.97R WCI 2
CHARLEVOIX LGT SNOW 18 13 82 W18G26 30.00R VSB 3/4 WCI 2
FRANKFORT CLOUDY 17 4 58 NW10 30.07R WCI 4
GAYLORD SNOW 17 10 74 W12G23 29.92R VSB 1/2 WCI 4
HARBOR SPRINGS CLOUDY 17 7 65 W12 29.98R WCI 4
HOUGHTON LAKE LGT SNOW 16 9 74 NW10G21 29.97R WCI 4
MANISTEE FLURRIES 17 8 67 NW16G23 30.07R WCI 2
OSCODA FLURRIES 21 10 62 NW10 29.95R WCI 10
PELLSTON LGT SNOW 16 10 77 NW14 29.99R WCI 2
ROGERS CITY CLOUDY 17 5 58 NW16G24 29.96R WCI 2
TRAVERSE CITY LGT SNOW 17 11 77 NW12G23 30.03R WCI 4
$$
MIZ007>008-015-222100-
EASTERN UPPER MICHIGAN

CITY SKY/WX TMP DP RH WIND PRES REMARKS
KINROSS LGT SNOW 15 6 67 NW14G26 29.95R WCI 0
MACKINAC ISLAN PTSUNNY 17 5 61 NW14G25 29.97R WCI 3
NEWBERRY CLOUDY 13 4 65 NW9G25 29.98R WCI 1
S. S. MARIE LGT SNOW 14 6 70 NW12G23 29.96R WCI 0
MUNISING N/A 16 6 65 NW18G29 30.04R WCI 0
$$
MIZ004>006-011>014-085-222100-
CENTRAL UPPER MICHIGAN

CITY SKY/WX TMP DP RH WIND PRES REMARKS
MANISTIQUE PTSUNNY 17 5 59 NW15G26 30.02R WCI 2
ESCANABA CLOUDY 16 0 49 W16 30.08S WCI 1
SAWYER-GWINN FLURRIES 9 0 66 NW14 30.02S WCI -8
$$
MIZ001>003-009>011-084-222100-
WESTERN UPPER MICHIGAN

CITY SKY/WX TMP DP RH WIND PRES REMARKS
IRON MOUNTAIN SUNNY 13 -1 54 NW14 30.03S WCI -2
HOUGHTON FLURRIES 9 1 70 NW12 30.06S WCI -6
COPPER HARBOR N/A 13 9 84 N16 30.08S WCI -3
IRONWOOD MOSUNNY 10 0 63 W6 30.11S WCI 0
$$

ABBREVIATIONS USED IN REMARKS
TC - TEMPERATURE IN CELSIUS
WCI - WIND CHILL INDEX
HX - HEAT INDEX
VSB - VISIBILITY




000
ASUS63 KAPX 221504
RTPAPX


Eastern Upper/Northern Lower Michigan Temperature and Precip Summary
National Weather Service Gaylord MI
1004 AM EST Fri Jan 22 2021

Yesterday`s High Temperature...12 hour Low ending 7 am EST
24 hour Precipitation/Snowfall ending 7 am EST
Snow Depth observed at 7 am EST

.BR APX 0122 ES DH00/TAIRZX/DH07/TAIRZP/PPDRZZ/SFDRZZ/SDIRZZ
:..................................................................
: MAX MIN 24 HR 24 HR SNOW
:ID LOCATION TEMP TEMP PRECIP SNOW DEPTH
:..................................................................
ANJ : Sault Ste Marie : 36 / 12 / 0.07 / 1.1 / 13
APN : Alpena : 41 / 26 / 0.07 / 1.5 / 3
HTL : Houghton Lake : 35 / 17 / 0.03 / 0.6 / 9
PLN : Pellston : 38 / 16 / 0.14 / /
TVC : Traverse City : 38 / 19 / 0.01 / /
GLR : Gaylord : 37 / 17 / 0.13 / /
.END

Cooperative Observations
Temperature/Precipitation/Snowfall values are for 24 hour period
ending at observation time. Snow Depth at obs time.

...................................................................
OBS MAX MIN SNOW SNOW
ID LOCATION TIME TEMP TEMP PCPN FALL DEPTH
...................................................................
BEUM4: Beulah 7SSW :DH0800/ 36 / 16 / 0.02 / 0.2 / 2.0
CHRM4: Charlevoix :DH0800/ 38 / 20 / 0.10 / 0.5 / 1.0
DTVM4: Detour Village :DH0800/ 35 / 12 / 0.10 / 0.5 / 2.0
EJDM4: East Jordan :DH0800/ 37 / 16 / 0.19 / 5.2 / 5.0
EJNM4: East Jordan 2NW :DH0830/ 35 / 15 / 0.24 / 3.6 / 9.0
ETWM4: East Tawas :DH0830/ 40 / 20 / 0.00 / 0.0 / 2.0
ENGM4: Engadine MDOT :DH0700/ 36 / 14 / 0.09 / 0.0 / 3.0
FLAM4: Fife Lake 2WSW :DH0700/ 34 / 13 / 0.14 / 2.1 / 9.0
GAYM4: Gaylord :DH0800/ 34 / 13 / 0.39 / 5.7 /14.0
APXM4: Gaylord 9SSW (NWS) :DH0700/ M / M / 0.23 / 4.0 / 9.0
GLAM4: Gladwin :DH0700/ 40 / 17 / 0.00 / 0.0 / 5.0
GLNM4: Glennie 2SE :DH0730/ 38 / 16 / 0.00 / 0.0 / 3.0
LKCM4: Lake City 2SE :DH0800/ 35 / 13 / 0.20 / 1.8 / 8.0
MYOM4: Mio :DH0830/ 42 / 17 / T / T / 7.0
OMSM4: Old Mission 3SSW :DH0840/ 37 / 17 / 0.05 / M / M
PETM4: Petoskey :DH0800/ 37 / 19 / 0.23 / 4.0 / M
PTYM4: Petoskey NCMC :DH0806/ 37 / 16 / 0.16 / 2.7 / 5.0
SSMM4: Sault Ste Marie :DH0800/ 35 / 7 / 0.08 / 1.1 /13.0
STIM4: St Ignace :DH0700/ 35 / 12 / 0.29 / 2.5 / 4.0
STAM4: Standish 4NE :DH0800/ 40 / 21 / 0.00 / 0.0 / 4.0
TCEM4: Traverse City 4.7ESE :DH0700/ M / M / 0.05 / 1.1 / 5.0
NWFM4: Traverse City 8NNW :DH0800/ 36 / 18 / 0.05 / 2.0 / 4.0
TCMM4: Traverse City Munson :DH0620/ 37 / 17 / 0.06 / 0.7 / 3.0

These data are preliminary and have not undergone final quality
control by the National Centers for Environmental Information.
Therefore...these data are subject to revision. Final
and certified climate data can be accessed at www.ncdc.noaa.gov.

&&

The following are supplemental temperature and precipitation data.
This includes data which are received from non-National Weather
Service maintained observing systems...as well as reports from
public weather spotters. Data is only partially quality controlled
and is not suitable for official climatological records.

.BR APX 0122 ES DH00/TAIRZX/DH07/TAIRZP
:
:Automated Temperature Data--Yesterday High/12 hr Low Ending 7 am EST
:..................................................................
: MAX MIN
:ID LOCATION TEMP TEMP
:..................................................................
:
ERY : Newberry : 35 / 13
CIU : Kinross : 35 / 9
MCD : Mackinac Island : 37 / 14
DRM : Drummond Island : 36 / 12
SJX : Beaver Island : 36 / 17
SLH : Cheboygan : 37 / 14
PZQ : Rogers City : 39 / 16
CVX : Charlevoix : 37 / 19
MGN : Harbor Springs : 36 / 16
ACB : Bellaire : 37 / 19
FKS : Frankfort : 37 / 17
MBL : Manistee : 37 / 18
CAD : Cadillac : 34 / 15
Y31 : West Branch : 39 / 19
OSC : Oscoda : 38 / 19
LDM : Ludington : 38 / 19
RQB : Big Rapids : 36 / 17
MOP : Mount Pleasant : 40 / 21
IKW : Midland : 40 / 21
.END

U.S. Forest Serivce Remote Automated Weather Stations (RAWS)
Data is only partially quality controlled
Yesterday`s High/12 hour Low Temperature ending 7 am EST
Maximum Relative Humidity over past 12 hours
12/24 hour Precipitation ending 7 am EST
...................................................................
MAX MIN MAX 12 HR 24 HR
ID LOCATION TEMP TEMP RH PRECIP PRECIP
...................................................................
AGRM4: Alger RAWS : 42 / 19 / 80 / 0.00 / 0.00
ATAM4: Atlanta RAWS : 40 / 16 / 95 / 0.00 / 0.00
BCYM4: Barton City RAWS : 40 / 18 / 84 / 0.00 / 0.00
GYGM4: Grayling RAWS : 37 / 16 / 100 / 0.00 / 0.00
INDM4: Indian River RAWS : 39 / 15 / 95 / 0.00 / 0.00
MMOM4: Mio RAWS : 39 / 17 / 88 / 0.00 / 0.00
NMIM4: N Manitou Island : 36 / 16 / 85 / 0.00 / 0.00
RACM4: Raco RAWS : 35 / 12 / 100 / 0.00 / 0.09
REXM4: Rexton RAWS : M / M / M / M / M
RSCM4: Roscommon RAWS : 41 / 17 / M / 0.00 / 0.00
RYDM4: Rudyard RAWS : 36 / 12 / 93 / 0.00 / 0.00
SBDM4: The Bear RAWS : 36 / 17 / 95 / 0.00 / 0.04
SCKM4: Silver Creek RAWS : 39 / 20 / 80 / 0.00 / 0.25
WLLM4: Wellston RAWS : 38 / 17 / 85 / 0.00 / 0.07

The following are precipitation reports received by the National
Weather Service in Gaylord...valid for the time period ending
around 7 am EST. All reports have been recorded in inches.

Spotter reports from Eastern Upper and Northern Lower Michigan:

WATER TIME SNOW
LOCATION RAIN SNOW EQUIV PERIOD DEPTH
Higgins Lake 0.5 24 Hr 4
Indian River 2.4 24 Hr 6



CoCoRaHS Precipitation Reports
Values are for the previous 24 hours ending around 7 am EST.
All reports have been recorded in inches.

SNOW SNOW WATER
STATION LOCATION PCPN FALL DEPTH EQUIV
MIOT04 : GAYLORD 1.7 WNW * : 0.39 / 5.7 / 14.0 / MM
MIEM05 : HARBOR SPRINGS 0.7 ENE * : 0.31 / 3.0 / 4.0 / MM
MIOT17 : GAYLORD 4.1 S * : 0.30 / 5.8 / 13.0 / MM
MIOT16 : GAYLORD 2.2 SSE * : 0.30 / 5.9 / 12.0 / MM
MIMC04 : ST. IGNACE 0.5SE * : 0.29 / 2.5 / 3.5 / MM
MICX07 : EAST JORDAN 2.1 NNW * : 0.24 / 3.6 / 9.0 / MM
MIAT06 : MANCELONA 0.5 ESE * : 0.19 / 4.6 / 11.5 / MM
MIMC03 : CEDARVILLE 3.2 ESE * : 0.19 / 2.3 / MM / MM
MICX04 : CHARLEVOIX 4.3 SSE * : 0.15 / 2.0 / MM / MM
MIPI01 : ROGERS CITY 0.2 WSW * : 0.12 / 1.5 / 3.5 / MM
MIEM08 : PETOSKEY 1.7 SSW * : 0.10 / 3.0 / 6.0 / MM
MIPI02 : ROGERS CITY 0.4 SSW * : 0.08 / 0.5 / MM / MM
MIAP02 : OSSINEKE 1.0 NNE * : 0.07 / 1.0 / MM / MM
MIGT16 : TRAVERSE CITY 0.9 NNE * : 0.07 / 1.0 / MM / MM
MIGT21 : KINGSLEY 2.7 ENE * : 0.05 / 1.5 / 8.0 / MM
MIGT25 : TRAVERSE CITY 4.7 ESE * : 0.05 / 1.1 / 5.0 / MM
MILL01 : NORTHPORT 5.0 SSW * : 0.05 / 0.6 / MM / MM
MIBZ01 : BENZONIA 5.3 S * : 0.04 / 1.6 / 5.5 / MM
MIAP01 : ALPENA 1.6 SSW * : 0.04 / 0.9 / MM / MM
MICP14 : SAULT STE. MARIE 2.2 E * : 0.03 / 0.2 / 9.0 / MM
MIOG06 : WEST BRANCH 2.1 SSW * : T / MM / 12.0 / MM
MIIC03 : EAST TAWAS 0.8 WSW * : T / T / 1.5 / MM
MIMN06 : WELLSTON 3.9 WNW * : T / T / MM / MM
MIOD03 : LUZERNE 2.4 NE * : 0.00 / 0.0 / MM / MM
MICF09 : GRAYLING 15.8 NE * : MM / 0.5 / 6.5 / MM

$$